This is the latest recevied weather packets stored in our database for station/object KD4KKF. If no packets are shown the sender has not sent any weather packets the latest 1 day(s).
| Time | Temp. | Humidity | Pressure | Rain* | Wind** | Luminosity | Snow |
|---|---|---|---|---|---|---|---|
| 1778018043 | 22.78° C | 71% | 1010.2 hPa | 0 mm | 0.89 m/s, 249° | 234 W/m² | - |
| 1778017740 | 23.33° C | 71% | 1010.2 hPa | 0 mm | 1.34 m/s, 153° | 112 W/m² | - |
| 1778017438 | 23.33° C | 72% | 1010.2 hPa | 0 mm | 0.45 m/s, 299° | 209 W/m² | - |
| 1778017135 | 23.33° C | 72% | 1010.4 hPa | 0 mm | 1.34 m/s, 186° | 177 W/m² | - |
| 1778016832 | 23.33° C | 70% | 1010.4 hPa | 0 mm | 1.34 m/s, 112° | 188 W/m² | - |
| 1778016528 | 23.33° C | 71% | 1010.4 hPa | 0 mm | 1.34 m/s, 225° | 253 W/m² | - |
| 1778016225 | 23.89° C | 70% | 1010.2 hPa | 0 mm | 1.79 m/s, 226° | 311 W/m² | - |
| 1778015921 | 23.33° C | 71% | 1010.3 hPa | 0 mm | 0.45 m/s, 161° | 382 W/m² | - |
| 1778015619 | 23.33° C | 71% | 1010.3 hPa | 0 mm | 0.89 m/s, 229° | 281 W/m² | - |
| 1778015316 | 22.78° C | 73% | 1010.5 hPa | 0 mm | 1.79 m/s, 166° | 206 W/m² | - |
| 1778015013 | 22.78° C | 71% | 1010.5 hPa | 0 mm | 1.34 m/s, 161° | 145 W/m² | - |
| 1778014709 | 22.78° C | 71% | 1010.4 hPa | 0 mm | 0.89 m/s, 307° | 138 W/m² | - |
| 1778014408 | 22.78° C | 69% | 1010.5 hPa | 0 mm | 1.34 m/s, 259° | 125 W/m² | - |
| 1778014104 | 22.78° C | 70% | 1010.4 hPa | 0 mm | 0.45 m/s, 129° | 120 W/m² | - |
| 1778013802 | 23.33° C | 69% | 1010.5 hPa | 0 mm | 1.34 m/s, 151° | 144 W/m² | - |
| 1778013499 | 22.78° C | 70% | 1010.3 hPa | 0 mm | 0.45 m/s, 201° | 140 W/m² | - |
| 1778013196 | 22.78° C | 69% | 1010.5 hPa | 0 mm | 0.45 m/s, 273° | 138 W/m² | - |
| 1778012892 | 23.33° C | 68% | 1010.4 hPa | 0 mm | 1.34 m/s, 109° | 152 W/m² | - |
| 1778012588 | 23.33° C | 69% | 1010.7 hPa | 0 mm | 0.45 m/s, 279° | 132 W/m² | - |
| 1778012285 | 23.33° C | 68% | 1010.7 hPa | 0 mm | 0.89 m/s, 170° | 161 W/m² | - |
| 1778011982 | 23.33° C | 68% | 1010.7 hPa | 0 mm | 0.89 m/s, 231° | 200 W/m² | - |
| 1778011681 | 23.33° C | 68% | 1010.8 hPa | 0 mm | 1.79 m/s, 227° | 232 W/m² | - |
| 1778011377 | 23.33° C | 67% | 1010.8 hPa | 0 mm | 0.89 m/s, 254° | 235 W/m² | - |
| 1778011072 | 23.33° C | 69% | 1011.2 hPa | 0 mm | 0.45 m/s, 113° | 255 W/m² | - |
| 1778010771 | 23.89° C | 66% | 1010.9 hPa | 0 mm | 1.79 m/s, 199° | 282 W/m² | - |
* Rain latest hour (hover to see other rain measurements)
** Current wind speed in m/s (hover to see current wind gust speed)